星链-1724 (STARLINK-1724 )

导读 | 星芒AI

STARLINK-1724 是 SpaceX Starlink 项目中的一颗低轨通信卫星,属于第 5 批组网卫星(v1.5 版本)。该卫星于 2022 年 10 月 18 日由猎鹰 9 号火箭成功送入近地轨道,旨在为全球用户提供高速互联网服务。它运行在约 550 公里的高度,具备先进相控阵天线和激光通信能力,支持星间链路,提高网络效率与覆盖范围。作为 Starlink 系统的重要组成部分,该卫星有助于构建全球宽带网络,特别是在偏远和网络基础设施薄弱地区。

基本信息
目录编号:
46375
目录名称:
STARLINK-1724
国际标识:
2020-062BC
轨道中心:
EARTH
卫星名称:
星链-1724
卫星全名:
星链-1724 (STARLINK-1724 )
卫星状态:
在轨 (已飞行1882 天)
发射日期:
2020-09-03 UTC
国别 :
美国 (US)
星等 :
--
轨道信息
数据来源 国际轨道数据
星历时间: 2025-10-29T17:08:11+0800
7小时前
查看轨道信息
半长轴: 6856.761km
偏心率: 0.000808
轨道倾角: 53.036°
近地点辐角 71.548°
升交点赤经 188.632°
平近点角 288.640°
近地点: 473.085km
远地点: 484.167km
周期: 94.176分钟
每日圈数: 15.290593
详细信息
固有亮度:
5
最大亮度:
2.5
卫星平台:
Starlink V1.0
覆盖范围:
全球
运营商:
太空探索技术公司
运营商所在国:
美国
制造商(研发单位):
太空探索技术公司
制造商所在国:
美国
使用方式:
暂无
卫星简介
星链(Starlink)计划是由太空探索技术公司(SpaceX)提出的一个巨型低轨卫星互联网星座项目,计划在2019年至2024年间在太空搭建由约1.2万颗卫星组成的“星链”网络,其中1584颗将部署在地球上空550千米处的近地轨道,并从2020年开始工作。该卫星仍在工作。
2D轨道图
3D轨道图
轨道高度分析图
轨道倾角分析图
轨道综合分析图
查看轨道综合分析图